{"data":{"norad_id":62425,"epoch":"2026-05-24T23:43:12.891360Z","epoch_age_seconds":72443,"freshness":"FRESH","line1":"1 62425U 24249S   26144.98834365  .00013486  00000+0  49866-3 0  9990","line2":"2 62425  42.9994 239.6163 0001497 258.8154 101.2530 15.27582825 79522","mean_motion":15.27582825,"eccentricity":0.0001497,"inclination_deg":42.9994,"raan_deg":239.6163,"arg_perigee_deg":258.8154,"mean_anomaly_deg":101.253,"bstar":0.00049866,"rev_number":7952,"period_min":94.266574383618,"perigee_km":482.01351869414,"apogee_km":484.06775527866,"semimajor_km":6861.1776369864,"source":"CELESTRAK","updated_at":"2026-05-25T13:38:19.655497Z"}}